Terug naar catalogus

CZ-6A DEB

ActiefPO
NORAD 60787·DEBRIS·🇨🇳 China

Gelanceerd Aug 6, 2024 vanaf Taiyuan Satellite Launch Center

Loading…

Volgende Passages (komende 24 uur)

TLE

VersSource: Space-Track

Epoch: Sep 13, 2026, 17:16 UTC

1 60787U 24140FN  26256.71964981  .00000432  00000-0  19507-3 0  9999
2 60787  88.9671 262.1825 0053190 292.4018  67.1542 14.19784845108150

Volg CZ-6A DEB in realtime met AllMySat

Download on the App Store